Home > Weather > Chania > Past weeks

Flag for Greece Past Weather in Chania, Crete, Greece — Yesterday and Last 2 Weeks

Now
82 °F

Sunny.


Feels Like: 85 °F
Forecast: 70 / 90 °F
Wind: 9 mph from North

Location: Souda Airport

Current Time: Aug 30, 2016 at 10:30:21 AM

Latest Report: Aug 30, 2016 at 9:50 AM


Visibility: 10 mi

Pressure: 29.95 "Hg

Humidity: 62%

Dew Point: 68 °F

Location of ChaniaLocation

Past Weather in Chania — Graph

°F

Chania Temperature Yesterday

Maximum temperature yesterday: 86 °F (at 12:50 PM)
Minimum temperature yesterday: 70 °F (at 5:50 AM)
Average temperature yesterday: 78 °F

High & Low Weather Summary for the Past Weeks

 TemperatureHumidityPressure
High95 °F (Aug 18, 12:50 PM)100% (Aug 20, 1:20 AM)30.12 "Hg (Aug 20, 1:20 AM)
Low66 °F (Aug 17, 5:50 AM)32% (Aug 18, 1:50 PM)29.74 "Hg (Aug 19, 7:50 AM)
Average78 °F70%29.89 "Hg
* Reported Aug 15 8:20 AM — Aug 30 8:50 AM, Chania, Weather by CustomWeather, © 2016

Note: Actual official high and low records may vary slightly from our data, if they occured in-between our weather recording intervals... More about our weather records

Advertising

Chania Weather History for the Previous 24 Hours

Scroll right to see more
 ConditionsComfort  
Time TempWeatherWind HumidityBarometerVisibility
8:50 AM
Tue, Aug 30
79 °FSunny.7 mph65%29.92 "Hg10 mi
8:20 AM75 °FSunny.7 mph83%29.92 "Hg10 mi
7:50 AM75 °FClear.7 mph83%29.92 "Hg10 mi
7:20 AM75 °FClear.7 mph78%29.92 "Hg10 mi
6:50 AM75 °FClear.10 mph78%29.92 "Hg10 mi
6:20 AM73 °FClear.12 mph83%29.95 "Hg10 mi
5:50 AM73 °FClear.12 mph83%29.92 "Hg10 mi
5:20 AM73 °FClear.10 mph94%29.92 "Hg10 mi
4:50 AM73 °FClear.3 mph74%29.92 "Hg10 mi
4:20 AM73 °FClear.8 mph74%29.92 "Hg10 mi
3:50 AM73 °FClear.8 mph74%29.92 "Hg10 mi
3:20 AM73 °FClear.7 mph74%29.95 "Hg10 mi
2:20 AM73 °FClear.3 mph65%29.95 "Hg10 mi
1:50 AM73 °FClear.8 mph74%29.95 "Hg10 mi
1:20 AM73 °FClear.3 mph74%29.95 "Hg10 mi
12:50 AM73 °FClear.No wind74%29.95 "Hg10 mi
12:20 AM73 °FClear.No wind74%29.95 "Hg10 mi
11:50 PM
Mon, Aug 29
73 °FClear.No wind74%29.95 "Hg10 mi
11:20 PM73 °FClear.No wind83%29.95 "Hg10 mi
10:50 PM73 °FClear.No wind83%29.95 "Hg10 mi
10:20 PM73 °FClear.2 mph83%29.95 "Hg10 mi
9:50 PM75 °FClear.5 mph78%29.95 "Hg10 mi
9:20 PM75 °FClear.7 mph74%29.92 "Hg10 mi
8:50 PM75 °FSunny.7 mph74%29.92 "Hg10 mi
8:20 PM79 °FSunny.7 mph58%29.92 "Hg10 mi
7:50 PM79 °FSunny.7 mph58%29.92 "Hg10 mi
7:20 PM82 °FPassing clouds.7 mph62%29.92 "HgN/A
6:50 PM82 °FPassing clouds.12 mph62%29.92 "HgN/A
6:20 PM84 °FPassing clouds.9 mph55%29.92 "HgN/A
5:50 PM84 °FPassing clouds.7 mph55%29.92 "HgN/A
5:20 PM86 °FPassing clouds.7 mph52%29.92 "HgN/A
4:50 PM86 °FPassing clouds.7 mph52%29.92 "HgN/A
4:20 PM86 °FPassing clouds.9 mph52%29.95 "HgN/A
3:50 PM86 °FPassing clouds.12 mph52%29.95 "HgN/A
3:20 PM86 °FPassing clouds.9 mph52%29.95 "HgN/A
2:50 PM86 °FPassing clouds.9 mph52%29.95 "HgN/A
2:20 PM86 °FPassing clouds.14 mph55%29.98 "HgN/A
1:50 PM86 °FPassing clouds.7 mph55%29.98 "HgN/A
1:20 PM86 °FPassing clouds.5 mph59%29.98 "HgN/A
12:50 PM86 °FPassing clouds.7 mph55%29.95 "HgN/A
12:20 PM84 °FPassing clouds.8 mph58%29.98 "HgN/A
11:50 AM84 °FPassing clouds.3 mph62%29.98 "HgN/A
11:20 AM82 °FPassing clouds.6 mph62%29.98 "HgN/A
10:50 AM82 °FPassing clouds.10 mph62%29.98 "HgN/A
10:20 AM81 °FPassing clouds.12 mph62%29.98 "HgN/A
Weather by CustomWeather, © 2016

See weather overviewHow to use our weather pages